User: anonymous   Login
Location: Unspecified
(0.0000°N, 0.0000°E)
Time: 09:05:31
(UTC+00:00)
Language:

Kosmos-1727 - Orbit

View from above orbital plane
View from above orbital plane
View from above satellite
View from above satellite

Ground track
Ground track

The orbit data is extracted from the following two-line orbital elements,

1 16510U 86008A   18016.82370021  .00000007  00000-0 -84068-5 0  9993
2 16510  82.9479  85.8775 0038721 157.8113 339.7350 13.74379179603821
Epoch (UTC): 16 January 2018 19:46:07
Eccentricity: 0.0038721
inclination: 82.9479°
perigee height: 955 km
apogee height: 1012 km
right ascension of ascending node: 85.8775°
argument of perigee: 157.8113°
revolutions per day: 13.74379179
mean anomaly at epoch: 339.7350°
orbit number at epoch: 60382

The dashed part of the orbit path shows where the satellite is in the earth's shadow,  

DLR